| time (UTC) | temp F | wind direction | speed MPH | gust MPH | rain 1hr in | rain 24hr in | rain mn in | humidity % | barometer mb |
| 20260507164525 | 71 | 258 | 1.0 | 2.0 | 0.00 | 0.13 | 0.13 | 88 | 1010.6 |
| 20260507163520 | 71 | 234 | 2.0 | 6.0 | 0.00 | 0.13 | 0.13 | 89 | 1010.7 |
| 20260507162535 | 72 | 179 | 2.0 | 5.0 | 0.00 | 0.13 | 0.13 | 88 | 1010.1 |
| 20260507161531 | 72 | 194 | 3.0 | 10.0 | 0.00 | 0.13 | 0.13 | 89 | 1010.2 |
| 20260507160526 | 72 | 194 | 2.0 | 9.0 | 0.00 | 0.13 | 0.13 | 90 | 1010.3 |
| 20260507155521 | 71 | 182 | 3.0 | 8.0 | 0.00 | 0.13 | 0.13 | 92 | 1010.4 |
| 20260507154536 | 71 | 185 | 3.0 | 7.0 | 0.00 | 0.13 | 0.13 | 92 | 1010.6 |
| 20260507153531 | 71 | 180 | 4.0 | 6.0 | 0.00 | 0.13 | 0.13 | 91 | 1010.7 |
| 20260507152525 | 71 | 214 | 4.0 | 10.0 | 0.00 | 0.13 | 0.13 | 91 | 1010.8 |
| 20260507151520 | 71 | 213 | 3.0 | 7.0 | 0.00 | 0.13 | 0.13 | 90 | 1010.4 |
| 20260507150536 | 71 | 175 | 3.0 | 6.0 | 0.00 | 0.13 | 0.13 | 90 | 1010.2 |
| 20260507145530 | 72 | 188 | 3.0 | 7.0 | 0.00 | 0.13 | 0.13 | 90 | 1010.4 |
| 20260507144525 | 72 | 194 | 2.0 | 5.0 | 0.00 | 0.13 | 0.13 | 91 | 1010.4 |
| 20260507143521 | 71 | 245 | 2.0 | 5.0 | 0.00 | 0.13 | 0.13 | 93 | 1010.1 |
| 20260507142516 | 71 | 191 | 2.0 | 6.0 | 0.00 | 0.13 | 0.13 | 94 | 1010.3 |
| 20260507141531 | 70 | 193 | 2.0 | 4.0 | 0.00 | 0.13 | 0.13 | 94 | 1010.3 |
| 20260507140526 | 70 | 203 | 1.0 | 6.0 | 0.00 | 0.13 | 0.13 | 94 | 1010.4 |
| 20260507135521 | 70 | 183 | 2.0 | 4.0 | 0.00 | 0.13 | 0.13 | 94 | 1010.3 |
| 20260507134517 | 70 | 201 | 3.0 | 6.0 | 0.00 | 0.13 | 0.13 | 94 | 1009.8 |
| 20260507133531 | 71 | 189 | 4.0 | 7.0 | 0.00 | 0.13 | 0.13 | 94 | 1009.8 |
| 20260507132526 | 71 | 187 | 3.0 | 6.0 | 0.00 | 0.13 | 0.13 | 95 | 1010.1 |
| 20260507131521 | 70 | 193 | 3.0 | 6.0 | 0.00 | 0.13 | 0.13 | 96 | 1010.5 |
| 20260507130516 | 70 | 165 | 3.0 | 5.0 | 0.01 | 0.13 | 0.13 | 96 | 1010.9 |
| 20260507125532 | 70 | 205 | 1.0 | 4.0 | 0.01 | 0.13 | 0.13 | 97 | 1011.3 |
| 20260507124527 | 70 | 186 | 2.0 | 7.0 | 0.01 | 0.13 | 0.13 | 97 | 1012.1 |
| 20260507123522 | 70 | 205 | 2.0 | 4.0 | 0.01 | 0.13 | 0.13 | 97 | 1012.3 |
| 20260507122517 | 70 | 107 | 0.0 | 3.0 | 0.01 | 0.13 | 0.13 | 97 | 1011.6 |
| 20260507121532 | 70 | 202 | 1.0 | 3.0 | 0.00 | 0.12 | 0.12 | 97 | 1012.1 |
| 20260507120528 | 70 | 175 | 1.0 | 3.0 | 0.00 | 0.12 | 0.12 | 97 | 1011.9 |
| 20260507115523 | 70 | 184 | 1.0 | 3.0 | 0.00 | 0.12 | 0.12 | 97 | 1012.0 |
| 20260507114518 | 70 | 236 | 1.0 | 3.0 | 0.00 | 0.12 | 0.12 | 96 | 1011.7 |
| 20260507113533 | 70 | 175 | 1.0 | 4.0 | 0.00 | 0.12 | 0.12 | 96 | 1011.9 |
| 20260507112528 | 70 | 193 | 2.0 | 6.0 | 0.00 | 0.12 | 0.12 | 97 | 1012.5 |
| 20260507111523 | 70 | 210 | 2.0 | 4.0 | 0.00 | 0.12 | 0.12 | 96 | 1012.6 |
| 20260507110518 | 70 | 158 | 1.0 | 3.0 | 0.01 | 0.12 | 0.12 | 96 | 1012.5 |
| 20260507105534 | 70 | 182 | 2.0 | 4.0 | 0.02 | 0.12 | 0.12 | 96 | 1012.5 |
| 20260507104528 | 70 | 183 | 2.0 | 7.0 | 0.02 | 0.12 | 0.12 | 96 | 1012.4 |
| 20260507103524 | 70 | 201 | 3.0 | 6.0 | 0.03 | 0.12 | 0.12 | 96 | 1012.5 |
| 20260507102518 | 70 | 188 | 2.0 | 4.0 | 0.04 | 0.12 | 0.12 | 96 | 1012.3 |
| 20260507101533 | 70 | 202 | 2.0 | 4.0 | 0.04 | 0.12 | 0.12 | 96 | 1012.1 |
| 20260507100529 | 70 | 198 | 2.0 | 5.0 | 0.03 | 0.11 | 0.11 | 95 | 1012.0 |
| 20260507095524 | 70 | 215 | 2.0 | 4.0 | 0.02 | 0.10 | 0.10 | 95 | 1012.1 |
| 20260507094519 | 71 | 185 | 3.0 | 7.0 | 0.02 | 0.09 | 0.09 | 95 | 1011.9 |
| 20260507093534 | 70 | 176 | 3.0 | 8.0 | 0.01 | 0.09 | 0.09 | 94 | 1011.9 |
| 20260507092529 | 70 | 195 | 2.0 | 5.0 | 0.00 | 0.08 | 0.08 | 94 | 1011.6 |
| 20260507091524 | 70 | 193 | 3.0 | 8.0 | 0.00 | 0.08 | 0.08 | 94 | 1011.3 |
| 20260507090520 | 70 | 190 | 4.0 | 10.0 | 0.00 | 0.08 | 0.08 | 94 | 1011.2 |
| 20260507085534 | 70 | 174 | 3.0 | 6.0 | 0.00 | 0.08 | 0.08 | 93 | 1011.4 |
| 20260507084529 | 70 | 194 | 3.0 | 6.0 | 0.00 | 0.08 | 0.08 | 93 | 1011.3 |
| 20260507083524 | 70 | 185 | 3.0 | 6.0 | 0.00 | 0.08 | 0.08 | 93 | 1011.3 |
| 20260507082519 | 70 | 204 | 3.0 | 7.0 | 0.00 | 0.08 | 0.08 | 94 | 1011.2 |
| 20260507081535 | 70 | 190 | 2.0 | 5.0 | 0.00 | 0.08 | 0.08 | 95 | 1011.3 |
| 20260507080530 | 69 | 189 | 3.0 | 5.0 | 0.01 | 0.08 | 0.08 | 95 | 1011.3 |
| 20260507075525 | 69 | 174 | 3.0 | 9.0 | 0.01 | 0.07 | 0.07 | 95 | 1011.2 |
| 20260507074520 | 69 | 199 | 2.0 | 6.0 | 0.02 | 0.07 | 0.07 | 95 | 1010.7 |
| 20260507073535 | 69 | 191 | 2.0 | 4.0 | 0.04 | 0.07 | 0.07 | 96 | 1010.7 |
| 20260507072529 | 69 | 184 | 2.0 | 5.0 | 0.05 | 0.07 | 0.07 | 96 | 1011.0 |
| 20260507071525 | 69 | 192 | 2.0 | 5.0 | 0.06 | 0.07 | 0.07 | 96 | 1010.9 |
| 20260507070520 | 69 | 187 | 2.0 | 4.0 | 0.06 | 0.07 | 0.07 | 95 | 1011.3 |
| 20260507065535 | 69 | 206 | 0.0 | 2.0 | 0.06 | 0.07 | 0.07 | 95 | 1011.7 |
| 20260507064530 | 70 | 180 | 2.0 | 6.0 | 0.06 | 0.06 | 0.06 | 95 | 1012.1 |
| 20260507063525 | 70 | 165 | 1.0 | 3.0 | 0.04 | 0.04 | 0.04 | 94 | 1012.9 |
| 20260507062520 | 70 | 71 | 0.0 | 2.0 | 0.03 | 0.03 | 0.03 | 94 | 1013.3 |
| 20260507061535 | 71 | 94 | 0.0 | 2.0 | 0.02 | 0.02 | 0.02 | 94 | 1013.8 |
| 20260507060530 | 71 | 207 | 0.0 | 2.0 | 0.02 | 0.02 | 0.02 | 93 | 1014.0 |
| 20260507055525 | 71 | 240 | 1.0 | 2.0 | 0.01 | 0.01 | 0.01 | 92 | 1014.2 |
| 20260507054520 | 71 | 325 | 1.0 | 2.0 | 0.00 | 0.00 | 0.00 | 92 | 1014.4 |
| 20260507053536 | 71 | 225 | 1.0 | 5.0 | 0.00 | 0.00 | 0.00 | 91 | 1013.7 |
| 20260507052531 | 71 | 210 | 1.0 | 4.0 | 0.00 | 0.00 | 0.00 | 91 | 1013.6 |
| 20260507051526 | 71 | 186 | 2.0 | 5.0 | 0.00 | 0.00 | 0.00 | 91 | 1013.5 |
| 20260507050521 | 71 | 194 | 2.0 | 4.0 | 0.00 | 0.00 | 0.00 | 91 | 1013.8 |
| 20260507045536 | 71 | 206 | 2.0 | 4.0 | 0.00 | 0.00 | 0.00 | 91 | 1013.8 |
| 20260507044532 | 71 | 191 | 2.0 | 6.0 | 0.00 | 0.00 | 0.00 | 91 | 1013.7 |
| 20260507043526 | 71 | 186 | 2.0 | 4.0 | 0.00 | 0.00 | 0.00 | 92 | 1013.8 |
| 20260507042522 | 70 | 185 | 2.0 | 4.0 | 0.00 | 0.00 | 0.00 | 92 | 1013.7 |
| 20260507041516 | 70 | 177 | 1.0 | 3.0 | 0.00 | 0.00 | 0.00 | 92 | 1013.5 |
| 20260507040532 | 70 | 170 | 1.0 | 3.0 | 0.00 | 0.00 | 0.00 | 91 | 1013.3 |
| 20260507035527 | 70 | 177 | 2.0 | 4.0 | 0.00 | 0.00 | 0.00 | 91 | 1013.0 |
| 20260507034522 | 70 | 188 | 2.0 | 6.0 | 0.00 | 0.00 | 0.00 | 91 | 1012.9 |
| 20260507033517 | 70 | 186 | 1.0 | 3.0 | 0.00 | 0.00 | 0.00 | 91 | 1013.0 |
| 20260507032532 | 70 | 176 | 3.0 | 6.0 | 0.00 | 0.00 | 0.00 | 91 | 1012.8 |
| 20260507031527 | 70 | 184 | 3.0 | 5.0 | 0.00 | 0.00 | 0.00 | 91 | 1013.1 |
| 20260507030523 | 70 | 183 | 3.0 | 5.0 | 0.00 | 0.00 | 0.00 | 91 | 1013.2 |
| 20260507025518 | 70 | 182 | 4.0 | 10.0 | 0.00 | 0.00 | 0.00 | 91 | 1013.5 |
| 20260507024533 | 70 | 195 | 2.0 | 4.0 | 0.00 | 0.00 | 0.00 | 90 | 1013.6 |
| 20260507023528 | 70 | 178 | 4.0 | 8.0 | 0.00 | 0.00 | 0.00 | 90 | 1013.6 |
| 20260507022523 | 70 | 180 | 3.0 | 6.0 | 0.00 | 0.00 | 0.00 | 90 | 1013.7 |
| 20260507021518 | 71 | 176 | 2.0 | 5.0 | 0.00 | 0.00 | 0.00 | 89 | 1013.8 |
| 20260507020534 | 71 | 193 | 3.0 | 7.0 | 0.00 | 0.00 | 0.00 | 89 | 1013.7 |
| 20260507015529 | 71 | 187 | 3.0 | 7.0 | 0.00 | 0.00 | 0.00 | 88 | 1013.6 |
| 20260507014524 | 71 | 194 | 3.0 | 5.0 | 0.00 | 0.00 | 0.00 | 87 | 1013.8 |
| 20260507013519 | 71 | 190 | 4.0 | 9.0 | 0.00 | 0.00 | 0.00 | 86 | 1013.6 |
| 20260507012534 | 71 | 193 | 4.0 | 7.0 | 0.00 | 0.00 | 0.00 | 85 | 1013.8 |
| 20260507011530 | 71 | 187 | 3.0 | 8.0 | 0.00 | 0.00 | 0.00 | 85 | 1013.8 |
| 20260507010525 | 71 | 173 | 3.0 | 6.0 | 0.00 | 0.00 | 0.00 | 85 | 1013.8 |
| 20260507005520 | 71 | 180 | 3.0 | 7.0 | 0.00 | 0.00 | 0.00 | 85 | 1013.8 |
| 20260507004535 | 71 | 180 | 4.0 | 12.0 | 0.00 | 0.00 | 0.00 | 85 | 1013.7 |
| 20260507003530 | 71 | 198 | 4.0 | 7.0 | 0.00 | 0.00 | 0.00 | 85 | 1013.6 |
| 20260507002526 | 71 | 184 | 4.0 | 10.0 | 0.00 | 0.00 | 0.00 | 85 | 1013.6 |
| 20260507001521 | 71 | 196 | 3.0 | 6.0 | 0.00 | 0.00 | 0.00 | 84 | 1013.8 |
| 20260507000536 | 71 | 196 | 3.0 | 5.0 | 0.00 | 0.00 | 0.00 | 83 | 1013.5 |
| 20260506235531 | 71 | 191 | 3.0 | 6.0 | 0.00 | 0.00 | 0.00 | 81 | 1013.6 |
| 20260506234526 | 71 | 190 | 3.0 | 7.0 | 0.00 | 0.00 | 0.00 | 80 | 1013.5 |
| 20260506233522 | 72 | 182 | 4.0 | 8.0 | 0.00 | 0.00 | 0.00 | 80 | 1013.6 |
| 20260506232535 | 72 | 189 | 3.0 | 7.0 | 0.00 | 0.00 | 0.00 | 79 | 1013.5 |
| 20260506231531 | 72 | 195 | 4.0 | 8.0 | 0.00 | 0.00 | 0.00 | 78 | 1013.5 |
| 20260506230526 | 72 | 183 | 4.0 | 9.0 | 0.00 | 0.00 | 0.00 | 77 | 1013.6 |
| 20260506225521 | 72 | 178 | 3.0 | 7.0 | 0.00 | 0.00 | 0.00 | 77 | 1013.6 |
| 20260506224516 | 73 | 202 | 4.0 | 11.0 | 0.00 | 0.00 | 0.00 | 76 | 1013.3 |
| 20260506223532 | 73 | 182 | 4.0 | 12.0 | 0.00 | 0.00 | 0.00 | 74 | 1013.7 |
| 20260506222527 | 74 | 201 | 4.0 | 9.0 | 0.00 | 0.00 | 0.00 | 73 | 1013.6 |
| 20260506221522 | 74 | 199 | 4.0 | 9.0 | 0.00 | 0.00 | 0.00 | 73 | 1013.6 |
| 20260506220518 | 74 | 187 | 5.0 | 12.0 | 0.00 | 0.00 | 0.00 | 72 | 1013.7 |
| 20260506215533 | 74 | 193 | 4.0 | 7.0 | 0.00 | 0.00 | 0.00 | 71 | 1013.6 |
| 20260506214528 | 75 | 187 | 4.0 | 13.0 | 0.00 | 0.00 | 0.00 | 71 | 1013.4 |
| 20260506213523 | 74 | 199 | 3.0 | 11.0 | 0.00 | 0.00 | 0.00 | 72 | 1013.7 |
| 20260506212519 | 74 | 197 | 3.0 | 5.0 | 0.00 | 0.00 | 0.00 | 72 | 1013.6 |
| 20260506211534 | 74 | 183 | 4.0 | 13.0 | 0.00 | 0.00 | 0.00 | 71 | 1013.6 |
| 20260506210529 | 74 | 193 | 3.0 | 6.0 | 0.00 | 0.00 | 0.00 | 72 | 1013.6 |
| 20260506205524 | 74 | 174 | 5.0 | 11.0 | 0.00 | 0.00 | 0.00 | 72 | 1013.7 |
| 20260506204519 | 75 | 209 | 4.0 | 11.0 | 0.00 | 0.00 | 0.00 | 71 | 1013.8 |
| 20260506203534 | 76 | 198 | 5.0 | 11.0 | 0.00 | 0.00 | 0.00 | 69 | 1013.7 |
| 20260506202529 | 76 | 200 | 4.0 | 8.0 | 0.00 | 0.00 | 0.00 | 71 | 1013.6 |
| 20260506201524 | 75 | 201 | 4.0 | 8.0 | 0.00 | 0.00 | 0.00 | 72 | 1013.5 |
| 20260506200519 | 77 | 190 | 5.0 | 13.0 | 0.00 | 0.00 | 0.00 | 68 | 1014.3 |
| 20260506195535 | 77 | 198 | 4.0 | 13.0 | 0.00 | 0.00 | 0.00 | 67 | 1014.5 |
| 20260506194529 | 76 | 229 | 4.0 | 8.0 | 0.00 | 0.00 | 0.00 | 70 | 1014.4 |
| 20260506193525 | 77 | 192 | 4.0 | 10.0 | 0.00 | 0.00 | 0.00 | 68 | 1014.2 |
| 20260506192520 | 77 | 190 | 5.0 | 11.0 | 0.00 | 0.00 | 0.00 | 68 | 1014.6 |
| 20260506191535 | 77 | 233 | 3.0 | 5.0 | 0.00 | 0.00 | 0.00 | 68 | 1015.0 |
| 20260506190530 | 76 | 191 | 5.0 | 13.0 | 0.00 | 0.00 | 0.00 | 68 | 1015.4 |
| 20260506185526 | 78 | 199 | 5.0 | 12.0 | 0.00 | 0.00 | 0.00 | 66 | 1015.4 |
| 20260506184520 | 78 | 193 | 4.0 | 9.0 | 0.00 | 0.00 | 0.00 | 65 | 1015.6 |
| 20260506183537 | 78 | 189 | 6.0 | 13.0 | 0.00 | 0.00 | 0.00 | 64 | 1015.8 |
| 20260506182531 | 78 | 205 | 4.0 | 13.0 | 0.00 | 0.00 | 0.00 | 63 | 1016.0 |
| 20260506181526 | 78 | 194 | 6.0 | 12.0 | 0.00 | 0.00 | 0.00 | 63 | 1016.0 |
| 20260506180521 | 78 | 222 | 3.0 | 8.0 | 0.00 | 0.00 | 0.00 | 64 | 1016.0 |
| 20260506175516 | 77 | 196 | 4.0 | 8.0 | 0.00 | 0.00 | 0.00 | 64 | 1015.8 |
| 20260506174532 | 76 | 189 | 5.0 | 11.0 | 0.00 | 0.00 | 0.00 | 67 | 1015.8 |
| 20260506173527 | 77 | 189 | 5.0 | 12.0 | 0.00 | 0.00 | 0.00 | 67 | 1016.0 |
| 20260506172522 | 77 | 189 | 5.0 | 11.0 | 0.00 | 0.00 | 0.00 | 67 | 1016.3 |
| 20260506171517 | 77 | 190 | 6.0 | 13.0 | 0.00 | 0.00 | 0.00 | 67 | 1016.2 |
| 20260506170533 | 77 | 197 | 5.0 | 10.0 | 0.00 | 0.00 | 0.00 | 68 | 1016.0 |
| 20260506165527 | 78 | 186 | 5.0 | 14.0 | 0.00 | 0.00 | 0.00 | 65 | 1016.1 |